When you browse on this site, cookies collect data to enhance your experience and personalize the content and advertising you see.
Visit our Privacy Policy to learn more. By continuing to use the site, you agree to this use of cookies and data.
  • In United Kingdom
  • List of Countries
  • For 7 days
  • Water Temperature
  • Weather Map
  • Weather Widgets
  • user-avatar
    Login

    Hourly Weather Pivnivka

    Today, 22 August, Thursday

    Time Temperature Precipitation Wind Pressure Humidity
    00:00 +23°C° 0 mm 5 mps 753 mmHg 76%
    01:00 +22°C° 0 mm 4 mps 753 mmHg 79%
    02:00 +22°C° 0 mm 4 mps 753 mmHg 81%
    03:00 +22°C° 0 mm 4 mps 753 mmHg 82%
    04:00 +21°C° 0 mm 3 mps 753 mmHg 82%
    05:00 +21°C° 0 mm 3 mps 753 mmHg 83%
    06:00 +21°C° 0 mm 3 mps 753 mmHg 83%
    07:00 +22°C° 0 mm 4 mps 753 mmHg 76%
    08:00 +25°C° 0 mm 4 mps 753 mmHg 68%
    09:00 +27°C° 0 mm 5 mps 754 mmHg 59%
    10:00 +29°C° 0 mm 4 mps 754 mmHg 53%
    11:00 +30°C° 0 mm 4 mps 753 mmHg 47%
    12:00 +33°C° 0 mm 4 mps 753 mmHg 41%
    13:00 +33°C° 0 mm 4 mps 753 mmHg 40%
    14:00 +33°C° 0 mm 4 mps 753 mmHg 38%
    15:00 +34°C° 0 mm 4 mps 753 mmHg 36%
    16:00 +33°C° 0 mm 4 mps 753 mmHg 39%
    17:00 +31°C° 0 mm 3 mps 753 mmHg 42%
    18:00 +30°C° 0 mm 3 mps 753 mmHg 45%
    19:00 +29°C° 0 mm 3 mps 753 mmHg 48%
    20:00 +27°C° 0 mm 3 mps 753 mmHg 51%
    21:00 +25°C° 0 mm 3 mps 754 mmHg 55%
    22:00 +25°C° 0 mm 3 mps 754 mmHg 57%
    23:00 +24°C° 0 mm 3 mps 754 mmHg 59%

    Tomorrow, 23 August, Friday

    Time Temperature Precipitation Wind Pressure Humidity
    00:00 +24°C° 0 mm 3 mps 754 mmHg 61%
    01:00 +22°C° 0 mm 3 mps 754 mmHg 62%
    02:00 +22°C° 0 mm 3 mps 754 mmHg 64%
    03:00 +21°C° 0 mm 3 mps 754 mmHg 66%
    04:00 +21°C° 0 mm 3 mps 754 mmHg 68%
    05:00 +21°C° 0 mm 3 mps 754 mmHg 70%
    06:00 +20°C° 0 mm 3 mps 754 mmHg 72%
    07:00 +22°C° 0 mm 4 mps 754 mmHg 66%
    08:00 +25°C° 0 mm 4 mps 754 mmHg 61%
    09:00 +26°C° 0 mm 5 mps 754 mmHg 55%
    10:00 +28°C° 0 mm 5 mps 754 mmHg 52%
    11:00 +29°C° 0 mm 5 mps 754 mmHg 49%
    12:00 +30°C° 0 mm 6 mps 754 mmHg 46%
    13:00 +30°C° 0 mm 5 mps 754 mmHg 45%
    14:00 +32°C° 0 mm 5 mps 754 mmHg 45%
    15:00 +32°C° 0 mm 5 mps 754 mmHg 44%
    16:00 +30°C° 0 mm 5 mps 754 mmHg 47%
    17:00 +30°C° 0 mm 4 mps 754 mmHg 51%
    18:00 +29°C° 0 mm 4 mps 754 mmHg 54%
    19:00 +28°C° 0 mm 4 mps 754 mmHg 58%
    20:00 +26°C° 0 mm 4 mps 754 mmHg 61%
    21:00 +25°C° 0 mm 4 mps 755 mmHg 65%
    22:00 +25°C° 0 mm 5 mps 754 mmHg 69%
    23:00 +23°C° 0 mm 5 mps 754 mmHg 72%

    Day after tomorrow, 24 August, Saturday

    Time Temperature Precipitation Wind Pressure Humidity
    00:00 +22°C° 0 mm 5 mps 754 mmHg 76%
    01:00 +22°C° 0 mm 5 mps 754 mmHg 79%
    02:00 +21°C° 0 mm 4 mps 755 mmHg 82%
    03:00 +21°C° 0 mm 4 mps 755 mmHg 86%
    04:00 +20°C° 0 mm 4 mps 755 mmHg 87%
    05:00 +20°C° 0 mm 5 mps 755 mmHg 89%
    06:00 +20°C° 0 mm 5 mps 754 mmHg 90%
    07:00 +21°C° 0 mm 5 mps 755 mmHg 84%
    08:00 +22°C° 0 mm 5 mps 755 mmHg 78%
    09:00 +25°C° 0 mm 5 mps 755 mmHg 72%
    10:00 +26°C° 0 mm 5 mps 755 mmHg 66%
    11:00 +28°C° 0 mm 6 mps 755 mmHg 60%
    12:00 +29°C° 0 mm 6 mps 755 mmHg 53%
    13:00 +30°C° 0 mm 6 mps 754 mmHg 51%
    14:00 +30°C° 0 mm 6 mps 754 mmHg 49%
    15:00 +32°C° 0 mm 6 mps 754 mmHg 46%
    16:00 +30°C° 0 mm 5 mps 754 mmHg 49%
    17:00 +30°C° 0 mm 5 mps 754 mmHg 51%
    18:00 +29°C° 0 mm 4 mps 754 mmHg 54%
    19:00 +28°C° 0 mm 4 mps 754 mmHg 58%
    20:00 +26°C° 0 mm 5 mps 754 mmHg 63%
    21:00 +25°C° 0 mm 5 mps 754 mmHg 68%
    22:00 +23°C° 0 mm 5 mps 754 mmHg 69%
    23:00 +23°C° 0 mm 5 mps 754 mmHg 70%

    25 August, Sunday

    Time Temperature Precipitation Wind Pressure Humidity
    00:00 +22°C° 0 mm 5 mps 754 mmHg 71%
    01:00 +22°C° 0 mm 5 mps 754 mmHg 72%
    02:00 +21°C° 0 mm 4 mps 754 mmHg 73%
    03:00 +21°C° 0 mm 4 mps 754 mmHg 75%
    04:00 +20°C° 0 mm 4 mps 754 mmHg 74%
    05:00 +20°C° 0 mm 4 mps 754 mmHg 74%
    06:00 +20°C° 0 mm 5 mps 754 mmHg 74%
    07:00 +21°C° 0 mm 5 mps 754 mmHg 68%
    08:00 +23°C° 0 mm 5 mps 754 mmHg 62%
    09:00 +25°C° 0 mm 5 mps 754 mmHg 56%
    10:00 +27°C° 0 mm 5 mps 754 mmHg 52%
    11:00 +28°C° 0 mm 5 mps 754 mmHg 49%
    12:00 +29°C° 0 mm 5 mps 754 mmHg 45%
    13:00 +30°C° 0 mm 5 mps 754 mmHg 45%
    14:00 +30°C° 0 mm 5 mps 754 mmHg 44%
    15:00 +30°C° 0 mm 5 mps 754 mmHg 43%
    16:00 +29°C° 0 mm 5 mps 754 mmHg 43%
    17:00 +28°C° 0 mm 5 mps 754 mmHg 42%
    18:00 +27°C° 0 mm 5 mps 754 mmHg 42%
    19:00 +26°C° 0 mm 4 mps 754 mmHg 44%
    20:00 +23°C° 0 mm 4 mps 754 mmHg 46%
    21:00 +21°C° 0 mm 4 mps 755 mmHg 48%
    22:00 +20°C° 0 mm 4 mps 755 mmHg 53%
    23:00 +20°C° 0 mm 4 mps 755 mmHg 57%

    26 August, Monday

    Time Temperature Precipitation Wind Pressure Humidity
    00:00 +19°C° 0 mm 4 mps 756 mmHg 61%
    01:00 +19°C° 0 mm 4 mps 756 mmHg 66%
    02:00 +17°C° 0 mm 5 mps 756 mmHg 72%
    03:00 +17°C° 0 mm 5 mps 756 mmHg 77%
    04:00 +16°C° 0 mm 5 mps 756 mmHg 76%
    05:00 +16°C° 0 mm 5 mps 757 mmHg 76%
    06:00 +15°C° 0 mm 5 mps 757 mmHg 75%
    07:00 +16°C° 0 mm 5 mps 757 mmHg 70%
    08:00 +19°C° 0 mm 6 mps 758 mmHg 65%
    09:00 +20°C° 0 mm 6 mps 758 mmHg 60%
    10:00 +21°C° 0 mm 6 mps 758 mmHg 55%
    11:00 +22°C° 0 mm 6 mps 758 mmHg 49%
    12:00 +23°C° 0 mm 6 mps 758 mmHg 44%
    13:00 +24°C° 0 mm 6 mps 758 mmHg 43%
    14:00 +24°C° 0 mm 6 mps 758 mmHg 42%
    15:00 +26°C° 0 mm 6 mps 758 mmHg 40%
    16:00 +25°C° 0 mm 5 mps 758 mmHg 42%
    17:00 +25°C° 0 mm 5 mps 758 mmHg 44%
    18:00 +23°C° 0 mm 4 mps 757 mmHg 46%
    19:00 +22°C° 0 mm 4 mps 758 mmHg 49%
    20:00 +20°C° 0 mm 4 mps 758 mmHg 53%
    21:00 +18°C° 0 mm 4 mps 758 mmHg 57%
    22:00 +18°C° 0 mm 4 mps 758 mmHg 59%
    23:00 +17°C° 0 mm 4 mps 758 mmHg 60%

    27 August, Tuesday

    Time Temperature Precipitation Wind Pressure Humidity
    00:00 +15°C° 0 mm 4 mps 758 mmHg 62%
    01:00 +15°C° 0 mm 4 mps 758 mmHg 63%
    02:00 +14°C° 0 mm 3 mps 758 mmHg 65%
    03:00 +13°C° 0 mm 3 mps 758 mmHg 66%
    04:00 +13°C° 0 mm 3 mps 758 mmHg 66%
    05:00 +13°C° 0 mm 3 mps 757 mmHg 66%
    06:00 +12°C° 0 mm 3 mps 757 mmHg 66%
    07:00 +14°C° 0 mm 3 mps 757 mmHg 59%
    08:00 +17°C° 0 mm 3 mps 757 mmHg 52%
    09:00 +20°C° 0 mm 3 mps 757 mmHg 46%
    10:00 +21°C° 0 mm 3 mps 757 mmHg 41%
    11:00 +23°C° 0 mm 2 mps 756 mmHg 37%
    12:00 +24°C° 0 mm 2 mps 756 mmHg 32%
    13:00 +25°C° 0 mm 1 mps 755 mmHg 30%
    14:00 +26°C° 0 mm 1 mps 755 mmHg 28%
    15:00 +25°C° 0 mm 0 mps 754 mmHg 26%
    16:00 +26°C° 0 mm 1 mps 754 mmHg 29%
    17:00 +26°C° 0 mm 1 mps 753 mmHg 31%
    18:00 +25°C° 0 mm 1 mps 753 mmHg 33%
    19:00 +23°C° 0 mm 1 mps 753 mmHg 36%
    20:00 +22°C° 0 mm 1 mps 753 mmHg 38%
    21:00 +20°C° 0 mm 1 mps 752 mmHg 40%
    22:00 +19°C° 0 mm 1 mps 752 mmHg 42%
    23:00 +19°C° 0 mm 1 mps 752 mmHg 44%
    Show more